Weather in Bielsk Podlaski

Poland     52°45′54″N   23°11′12″E
temp.,
°C
wind,
m/s
gust,
m/s
humid.,
%
clouds,
%
prec.,
mm/h
press.,
hPa
HPBL,
m
11 april, sun
sun1123:00+10se117070 0.0 101819
02:00+8sse1278100 0.0 101915
05:00+8s3676100 0.0 1019120
08:00+10s4772100 0.0 1021240
11:00+15s695199 0.0 1021891
14:00+16sse81144100 0.0 10201545
17:00+16sse71146100 0.0 10191506
20:00+13se71452100 0.0 1020449
12 april, mon
mon1223:00+11sse71553100 0.0 1021520
02:00+10sse71354100 0.0 1020455
05:00+8se61159100 0.0 1020338
08:00+9se61263100 0.0 1020406
11:00+10se6116799 0.0 1019455
14:00+14sse695989 0.0 10191140
17:00+11se4983100 0.9 1017328
20:00+11sse4988100 1.4 1018256
13 april, tue
tue1323:00+10wsw3695100 0.3 1019206
02:00+7nnw5794100 0.3 1020264
05:00+5nnw5891100 0.0 1021390
08:00+4nnw5888100 0.0 1022467
11:00+5n6781100 0.0 1023608
14:00+4nnw61085100 0.1 1024666
17:00+3n61296100 0.7 1023553
20:00+3n61295100 1.8 1023585
14 april, wed
wed1423:00+2n61297100 1.9 1023659
02:00+1n71497100 3.3 1021545
05:00+1n71598100 1.8 1021628
08:00+1n81597100 2.9 1020651
11:00+2n81597100 1.1 1020662
14:00+2n81597100 1.4 1019687
17:00+2n81598100 1.8 1019767
20:00+1nne71599100 5.8 1018743
15 april, thu
thu1523:00+2nne61398100 2.3 1018616
02:00+2nne61298100 2.7 1018514
05:00+2nne61298100 0.1 1018437
08:00+3nne61297100 0.1 1019482
11:00+4nne61295100 0.0 1020554
14:00+5nne61094100 0.1 1020570
17:00+5nne61290100 0.0 1020796
20:00+5nne71389100 0.1 1021753